Condicions actuals
Parcialment ennuvolat



Pressió
1007.92 (hPa) - 29.76 (inHG)
Visibilitat:

10.0 (km) - 6.2 (miles)
Base de Núvols

1524 (Mts) - 5000 (Feets)
   Temperatura
26  °C
Temperatura
22  °C
P.ros.
79  %
 Humitat
   Velocitat del Vent
16  km/h
9  kts
10  mph
4.5  m/s
   Vent Direcció
N
45°
E
90°
135°
S
180°
225°
O
270°
315°
 60°

Est N
Est
   Airport Data
LEBL
Josep Tarradellas Barcelona-El Prat Airport
Metar :LEBL 142030Z 06009KT 9999 FEW050 26/22 Q1008 NOSIG
Sun 14th August 22:30 pm
   Raw Metar Info
Raw METAR is the most common format in the world for the transmission of observational weather data. It is highly standardized through the International Civil Aviation Organization (ICAO), which allows it to be understood throughout most of the world.
   API Info
Data Provided by
https://www.checkwx.com/weather/LEBL

Aviation Weather providing METAR, TAF, AIRMET, SIGMET and OUTLOOK Weather Reports
   © Info
CSS/SVG/PHP scripts were developed by weather34.com for use in the weather34 template © 2015-2022

Guide Info provided by Metar-Wikipedia